Location: Bittelbronn
(48.4454°N, 8.5870°E)
Time: 07:52:41
(UTC+00:00)

Meteor 2-5 Rocket - Pass Details

Date: 13 August 2024
Orbit: 833 x 910 km, 81.2° (Epoch: 16 September)

Event Time Altitude Azimuth Distance (km) Brightness Sun altitude
Rises 02:04:38 0° 348° (NNW) 3,464 7.5 -18.3°
Reaches altitude 10° 02:07:04 10° 348° (NNW) 2,534 6.7 -18.1°
Maximum altitude 02:12:51 89° 82° (E) 894 3.8 -17.4°
Drops below altitude 10° 02:18:43 10° 170° (S) 2,565 5.9 -16.8°
Enters shadow 02:19:02 - 170° (S) 2,685 6.0 -16.8°
